Tracking 31032 objects as of 14-Jul-2025
HD Live streaming from Space Station
objects crossing your sky now

DELTA 1 DEB

Track DELTA 1 DEB now!
10-day predictions


NORAD ID: 10757
Int'l Code: 1976-077BE
Perigee: 1,498.5 km
Apogee: 1,874.6 km
Inclination: 101.9 °
Period: 120.0 minutes
Semi major axis: 8057 km
RCS: 0.0976 m2 (small)
Launch date: July 29, 1976
Source: United States (US)
Launch site: AIR FORCE WESTERN TEST RANGE (AFWTR)

Note: This is SATELLITE DEBRIS
Your satellite tracking list
Your tracking list is empty




NASA's NSSDC Master Catalog

Two Line Element Set (TLE):
1 10757U 76077BE  25194.46411929  .00000445  00000-0  55356-2 0  9993
2 10757 101.9416 266.7928 0233349 269.6450 104.9181 12.00327097143047
Source of the keplerian elements: AFSPC